Weather History for Fort Campbell, KY

Change the Weather History Date:

Tuesday, November 29, 2011

  Actual Average Record
Temperature  
Mean Temperature 36 °F -  
Max Temperature 39 °F 53 °F 73 °F (2006)
Min Temperature 33 °F 34 °F 22 °F (2013)
Degree Days  
Heating Degree Days 29    
Moisture  
Dew Point 36 °F    
Average Humidity 97    
Maximum Humidity 100    
Minimum Humidity 80    
Precipitation  
Precipitation 0.02 in - - ()
Sea Level Pressure  
Sea Level Pressure 29.86 in    
Wind  
Wind Speed 9 mph (West)    
Max Wind Speed 15 mph    
Max Gust Speed 23 mph    
Visibility 10 miles    
Events      
Averages and records for this station are not official NWS values.
T = Trace of Precipitation, MM = Missing Value Source: NWS Daily Summary

Daily Weather History Graph

Daily Weather History Graph

Search for Another Location

Airport:

Trip Planner

Search our weather history database for the weather conditions in past years. The results will help you decide how hot, cold, wet, or windy it might be!

Date:

Astronomy

Nov. 29, 2011 Rise Set
Actual Time 6:41 AM CST 4:34 PM CST
Civil Twilight 6:13 AM CST 5:02 PM CST
Nautical Twilight 5:41 AM CST 5:34 PM CST
Astronomical Twilight 5:10 AM CST 6:05 PM CST
Moon 10:30 AM CST (11/29) 9:24 PM CST (11/29)
Length of Visible Light 10h 49m
Length of Day
9h 53m
Waxing Crescent, 24% of the Moon is Illuminated
Nov 29
Waxing Crescent
Dec 2
First Quarter
Dec 10
Full
Dec 17
Last Quarter
Dec 24
New

Hourly Weather History & Observations

Time (CST) Temp. Windchill Dew Point Humidity Pressure Visibility Wind Dir Wind Speed Gust Speed Precip Events Conditions
12:12 AM 33.8 °F 27.0 °F 33.8 °F 100% 29.69 in 10.0 mi South 8.1 mph - N/A   Overcast
12:31 AM 33.8 °F 27.0 °F 33.8 °F 100% 29.69 in 10.0 mi South 8.1 mph - N/A   Overcast
12:41 AM 33.8 °F 26.4 °F 33.8 °F 100% 29.69 in 10.0 mi South 9.2 mph - N/A   Overcast
12:55 AM 34.5 °F 28.6 °F 34.2 °F 99% 29.69 in 10.0 mi South 6.9 mph - 0.00 in   Overcast
1:05 AM 33.8 °F 26.4 °F 33.8 °F 100% 29.69 in 10.0 mi South 9.2 mph - N/A   Overcast
1:55 AM 34.5 °F 29.4 °F 34.3 °F 99% 29.70 in 10.0 mi South 5.8 mph - N/A   Overcast
1:59 AM 33.8 °F 27.0 °F 33.8 °F 100% 29.70 in 10.0 mi South 8.1 mph - N/A   Overcast
2:29 AM 33.8 °F 27.7 °F 33.8 °F 100% 29.70 in 10.0 mi South 6.9 mph - N/A   Overcast
2:55 AM 34.3 °F 28.4 °F 34.2 °F 99% 29.70 in 10.0 mi South 6.9 mph - N/A   Overcast
3:19 AM 33.8 °F 28.6 °F 33.8 °F 100% 29.71 in 10.0 mi South 5.8 mph - N/A   Overcast
3:33 AM 33.8 °F 27.0 °F 33.8 °F 100% 29.71 in 10.0 mi South 8.1 mph - N/A   Overcast
3:39 AM 33.8 °F 27.0 °F 33.8 °F 100% 29.71 in 10.0 mi South 8.1 mph - N/A   Overcast
3:55 AM 34.3 °F 28.4 °F 34.2 °F 99% 29.71 in 10.0 mi South 6.9 mph - N/A   Overcast
4:04 AM 33.8 °F 27.7 °F 33.8 °F 100% 29.71 in 10.0 mi South 6.9 mph - N/A   Overcast
4:55 AM 34.2 °F 28.2 °F 34.0 °F 99% 29.71 in 10.0 mi South 6.9 mph - N/A   Overcast
5:55 AM 34.2 °F 29.0 °F 34.0 °F 99% 29.72 in 10.0 mi South 5.8 mph - N/A   Overcast
6:55 AM 34.3 °F 30.2 °F 34.2 °F 99% 29.74 in 10.0 mi SSE 4.6 mph - N/A   Overcast
7:55 AM 34.7 °F 30.6 °F 34.5 °F 99% 29.77 in 10.0 mi South 4.6 mph - N/A   Overcast
8:18 AM 35.6 °F 30.7 °F 35.6 °F 100% 29.78 in 10.0 mi SSW 5.8 mph - N/A   Overcast
8:28 AM 35.6 °F 30.7 °F 35.6 °F 100% 29.78 in 10.0 mi SW 5.8 mph - N/A   Overcast
8:55 AM 35.6 °F 32.8 °F 34.9 °F 97% 29.80 in 10.0 mi WSW 3.5 mph - N/A   Overcast
8:59 AM 35.6 °F 31.7 °F 35.6 °F 100% 29.81 in 10.0 mi SW 4.6 mph - N/A   Overcast
9:11 AM 35.6 °F 31.7 °F 35.6 °F 100% 29.81 in 10.0 mi West 4.6 mph - N/A   Overcast
9:44 AM 37.4 °F 33.8 °F 33.8 °F 87% 29.81 in 10.0 mi Variable 4.6 mph - N/A   Overcast
9:55 AM 36.7 °F 32.0 °F 34.3 °F 91% 29.82 in 10.0 mi Variable 5.8 mph - N/A   Overcast
10:55 AM 38.5 °F 33.4 °F 35.2 °F 88% 29.82 in 10.0 mi NW 6.9 mph - N/A   Overcast
11:55 AM 39.0 °F 34.8 °F 37.2 °F 93% 29.83 in 10.0 mi WNW 5.8 mph - N/A   Overcast
11:57 AM 39.2 °F 34.2 °F 37.4 °F 93% 29.83 in 10.0 mi WNW 6.9 mph - N/A   Overcast
12:21 PM 39.2 °F 32.0 °F 37.4 °F 93% 29.83 in 10.0 mi WNW 11.5 mph - N/A   Light Drizzle
12:49 PM 39.2 °F 31.2 °F 37.4 °F 93% 29.83 in 10.0 mi WNW 13.8 mph - N/A   Light Drizzle
12:55 PM 39.0 °F 31.8 °F 37.9 °F 96% 29.83 in 10.0 mi WNW 11.5 mph - 0.00 in   Light Drizzle
1:13 PM 39.2 °F 30.8 °F 37.4 °F 93% 29.83 in 10.0 mi West 15.0 mph - N/A   Drizzle
1:55 PM 37.4 °F 28.5 °F 36.5 °F 97% 29.85 in 10.0 mi WNW 15.0 mph 23.0 mph 0.00 in   Light Drizzle
2:27 PM 37.4 °F 28.5 °F 37.4 °F 100% 29.86 in 10.0 mi WNW 15.0 mph 20.7 mph N/A   Light Drizzle
2:55 PM 37.4 °F 28.5 °F 36.7 °F 97% 29.87 in 10.0 mi WNW 15.0 mph 19.6 mph 0.01 in   Light Drizzle
2:58 PM 37.4 °F 28.9 °F 37.4 °F 100% 29.88 in 10.0 mi WNW 13.8 mph - N/A   Overcast
3:29 PM 37.4 °F 28.9 °F 37.4 °F 100% 29.89 in 10.0 mi WNW 13.8 mph - N/A   Overcast
3:38 PM 37.4 °F 29.3 °F 37.4 °F 100% 29.89 in 10.0 mi WNW 12.7 mph 19.6 mph N/A   Overcast
3:55 PM 38.1 °F 30.7 °F 37.0 °F 96% 29.90 in 10.0 mi WNW 11.5 mph 18.4 mph 0.00 in   Overcast
4:34 PM 39.2 °F 31.6 °F 37.4 °F 93% 29.93 in 10.0 mi WNW 12.7 mph - N/A   Light Drizzle
4:55 PM 38.5 °F 29.9 °F 37.8 °F 97% 29.94 in 10.0 mi WNW 15.0 mph 21.9 mph 0.00 in   Light Drizzle
5:00 PM 39.2 °F 31.6 °F 37.4 °F 93% 29.94 in 10.0 mi WNW 12.7 mph 21.9 mph N/A   Light Drizzle
5:25 PM 39.2 °F 32.0 °F 37.4 °F 93% 29.96 in 10.0 mi WNW 11.5 mph - N/A   Light Drizzle
5:44 PM 39.2 °F 32.5 °F 39.2 °F 100% 29.97 in 10.0 mi WNW 10.4 mph 17.3 mph N/A   Light Drizzle
5:55 PM 38.7 °F 30.5 °F 38.5 °F 99% 29.98 in 10.0 mi WNW 13.8 mph - 0.00 in   Light Drizzle
6:35 PM 39.2 °F 32.5 °F 39.2 °F 100% 30.00 in 6.0 mi WNW 10.4 mph - N/A   Light Drizzle
6:37 PM 39.2 °F 32.0 °F 39.2 °F 100% 30.00 in 7.0 mi WNW 11.5 mph - N/A   Light Drizzle
6:39 PM 39.2 °F 30.8 °F 39.2 °F 100% 30.00 in 7.0 mi West 15.0 mph - N/A   Overcast
6:55 PM 38.8 °F 31.2 °F 38.7 °F 99% 30.00 in 7.0 mi WNW 12.7 mph - 0.01 in   Overcast
7:31 PM 39.2 °F 32.0 °F 39.2 °F 100% 30.02 in 10.0 mi WNW 11.5 mph - N/A   Overcast
7:38 PM 39.2 °F 32.5 °F 39.2 °F 100% 30.02 in 10.0 mi WNW 10.4 mph - N/A   Overcast
7:46 PM 39.2 °F 32.5 °F 39.2 °F 100% 30.02 in 10.0 mi WNW 10.4 mph 17.3 mph N/A   Overcast
7:55 PM 39.2 °F 32.5 °F 39.0 °F 99% 30.03 in 10.0 mi WNW 10.4 mph 19.6 mph N/A   Overcast
8:13 PM 39.2 °F 32.5 °F 39.2 °F 100% 30.03 in 10.0 mi NW 10.4 mph 18.4 mph N/A   Overcast
8:55 PM 39.2 °F 32.5 °F 38.7 °F 98% 30.04 in 10.0 mi WNW 10.4 mph - N/A   Overcast
9:45 PM 39.2 °F 34.2 °F 37.4 °F 93% 30.05 in 10.0 mi NW 6.9 mph 18.4 mph N/A   Overcast
9:55 PM 39.2 °F 32.5 °F 36.3 °F 89% 30.05 in 10.0 mi WNW 10.4 mph - N/A   Overcast
10:55 PM 39.0 °F 34.0 °F 34.0 °F 82% 30.06 in 10.0 mi NW 6.9 mph - N/A   Overcast
11:11 PM 39.2 °F 33.6 °F 33.8 °F 81% 30.06 in 10.0 mi NW 8.1 mph - N/A   Overcast
11:55 PM 38.3 °F 33.9 °F 32.5 °F 80% 30.06 in 10.0 mi Variable 5.8 mph - N/A   Overcast